This is the latest recevied weather packets stored in our database for station/object K7AEL. If no packets are shown the sender has not sent any weather packets the latest 10 day(s).
| Time | Temp. | Humidity | Pressure | Rain* | Wind** | Luminosity | Snow |
|---|---|---|---|---|---|---|---|
| 1777946792 | 16.67° C | 62% | 1015.1 hPa | 0 mm | - | 1 W/m² | - |
| 1777946488 | 16.67° C | 64% | 1014.9 hPa | 1.27 mm | - | 1 W/m² | - |
| 1777946186 | 16.67° C | 63% | 1015.5 hPa | 1.27 mm | - | 1 W/m² | - |
| 1777945882 | 17.22° C | 62% | 1015.2 hPa | 0 mm | - | 1 W/m² | - |
| 1777945579 | 17.22° C | 59% | 1015.4 hPa | 0 mm | - | 2 W/m² | - |
| 1777945276 | 17.78° C | 60% | 1015.1 hPa | 1.78 mm | - | 3 W/m² | - |
| 1777944974 | 18.33° C | 51% | 1015.3 hPa | 0 mm | - | 4 W/m² | - |
| 1777944671 | 18.33° C | 52% | 1015.4 hPa | 0 mm | - | 4 W/m² | - |
| 1777944369 | 18.89° C | 54% | 1015.3 hPa | 0 mm | - | 5 W/m² | - |
| 1777944065 | 18.89° C | 46% | 1015.2 hPa | 0 mm | - | 7 W/m² | - |
| 1777943761 | 18.89° C | 47% | 1015.1 hPa | 0 mm | - | 6 W/m² | - |
| 1777943459 | 18.89° C | 50% | 1015 hPa | 0 mm | - | 9 W/m² | - |
| 1777943154 | 18.89° C | 50% | 1014.8 hPa | 0 mm | - | 11 W/m² | - |
| 1777942850 | 18.89° C | 51% | 1014.7 hPa | 0 mm | - | 12 W/m² | - |
| 1777942546 | 18.89° C | 51% | 1014.8 hPa | 0 mm | - | 12 W/m² | - |
| 1777942244 | 18.89° C | 51% | 1014.8 hPa | 0 mm | - | 16 W/m² | - |
| 1777941935 | 20° C | 50% | 1015 hPa | 0 mm | - | 25 W/m² | - |
| 1777941632 | 20.56° C | 42% | 1015.2 hPa | 0 mm | - | 28 W/m² | - |
| 1777941329 | 20.56° C | 41% | 1014.9 hPa | 0 mm | - | 25 W/m² | - |
| 1777941026 | 20.56° C | 42% | 1014.9 hPa | 0 mm | - | 28 W/m² | - |
| 1777940721 | 21.11° C | 41% | 1014.9 hPa | 0 mm | - | 30 W/m² | - |
| 1777940421 | 21.11° C | 39% | 1014.8 hPa | 0 mm | - | 53 W/m² | - |
| 1777940117 | 21.67° C | 39% | 1014.7 hPa | 0 mm | - | 61 W/m² | - |
| 1777939814 | 21.67° C | 37% | 1014.5 hPa | 0 mm | - | 54 W/m² | - |
| 1777939512 | 21.67° C | 38% | 1014.4 hPa | 0 mm | - | 53 W/m² | - |
* Rain latest hour (hover to see other rain measurements)
** Current wind speed in m/s (hover to see current wind gust speed)